Location: ?p Thanh B�nh
(16.5833°N, 107.5333°E)
Time: 05:02:02
(UTC+00:00)

H-2A R/B - Pass Details

Date: 29 October 2020
Orbit: 733 x 837 km, 98.2° (Epoch: 29 November)

Event Time Altitude Azimuth Distance (km) Brightness Sun altitude
Rises 12:45:07 0° 187° (S) 3,303 5.4 -35.0°
Reaches altitude 10° 12:47:37 10° 196° (SSW) 2,389 4.7 -35.6°
Enters shadow 12:49:04 18° 205° (SSW) 1,912 4.3 -35.9°
Exits shadow 12:54:35 25° 303° (WNW) 1,607 4.0 -37.2°
Drops below altitude 10° 12:57:17 10° 325° (NW) 2,435 4.9 -37.9°
Sets 12:59:52 0° 334° (NNW) 3,376 5.6 -38.5°
